CW1631 Weather Reports


Display with metric or nautical units.
time (UTC)temp
F
wind
direction
speed
MPH
gust
MPH
rain 1hr
in
rain 24hr
in
rain mn
in
humidity
%
barometer
mb
20260505232224 64 237 2.0 2.0 0.00 0.02 0.02 81 1006.5
20260505231721 64 198 2.0 2.0 0.00 0.02 0.02 81 1006.6
20260505231220 64 218 1.0 2.0 0.00 0.02 0.02 80 1006.7
20260505230717 64 247 0.0 1.0 0.00 0.02 0.02 80 1006.4
20260505230214 64 282 1.0 2.0 0.05 0.02 0.02 79 1006.7
20260505225710 64 273 0.0 1.0 0.05 0.02 0.02 78 1006.8
20260505225207 65 277 0.0 1.0 0.00 0.01 0.01 76 1006.7
20260505224703 65 237 2.0 2.0 0.00 0.01 0.01 76 1006.6
20260505224201 65 224 7.0 8.0 0.00 0.01 0.01 76 1006.8
20260505223658 65 228 6.0 7.0 0.00 0.01 0.01 76 1006.9
20260505223154 65 239 4.0 5.0 0.00 0.01 0.01 76 1006.7
20260505222650 66 218 5.0 6.0 0.00 0.01 0.01 72 1006.6
20260505222146 67 219 2.0 2.0 0.00 0.01 0.01 70 1006.3
20260505221644 67 230 2.0 2.0 0.00 0.01 0.01 70 1006.2
20260505221140 67 224 4.0 6.0 0.00 0.01 0.01 71 1006.3
20260505220637 67 228 1.0 2.0 0.00 0.01 0.01 70 1006.1
20260505220135 68 238 4.0 5.0 0.00 0.01 0.01 69 1006.2
20260505215632 68 243 1.0 1.0 0.00 0.01 0.01 69 1005.9
20260505215130 68 256 0.0 1.0 0.00 0.01 0.01 67 1005.8
20260505214628 68 236 1.0 2.0 0.00 0.01 0.01 68 1005.8
20260505214125 68 197 5.0 6.0 0.00 0.01 0.01 68 1005.7
20260505213623 68 211 4.0 5.0 0.00 0.01 0.01 67 1005.9
20260505213119 68 230 2.0 2.0 0.00 0.01 0.01 69 1005.7
20260505212615 68 224 2.0 2.0 0.00 0.01 0.01 70 1005.9
20260505212113 67 255 0.0 0.0 0.00 0.01 0.01 71 1005.8
20260505211610 66 214 2.0 3.0 0.00 0.01 0.01 73 1005.7
20260505211107 66 231 2.0 2.0 0.00 0.01 0.01 74 1005.8
20260505210603 65 220 3.0 3.0 0.00 0.01 0.01 76 1006.0
20260505210100 64 141 1.0 2.0 0.00 0.01 0.01 77 1006.1
20260505205558 64 106 2.0 2.0 0.00 0.01 0.01 79 1006.2
20260505205055 63 101 3.0 3.0 0.00 0.01 0.01 81 1006.1
20260505204552 63 254 0.0 0.0 0.00 0.01 0.01 80 1006.2
20260505204050 63 211 1.0 1.0 0.00 0.01 0.01 81 1006.2
20260505203546 63 241 1.0 2.0 0.00 0.01 0.01 80 1006.6
20260505203043 63 262 3.0 5.0 0.00 0.01 0.01 80 1006.3
20260505202539 63 291 3.0 3.0 0.00 0.01 0.01 80 1006.5
20260505202035 62 245 2.0 2.0 0.00 0.01 0.01 81 1006.7
20260505201533 62 256 4.0 5.0 0.00 0.01 0.01 81 1006.7
20260505201030 62 235 5.0 9.0 0.00 0.01 0.01 80 1006.6
20260505200528 62 238 5.0 7.0 0.00 0.01 0.01 80 1007.0
20260505200024 62 266 8.0 14.0 0.07 0.01 0.01 80 1007.0
20260505195520 66 330 9.0 13.0 0.07 0.01 0.01 73 1006.6
20260505195018 74 190 11.0 17.0 0.00 0.00 0.00 45 1004.8
20260505194515 75 260 19.0 25.0 0.00 0.00 0.00 44 1004.6
20260505194010 76 233 7.0 11.0 0.00 0.00 0.00 41 1004.6
20260505193508 76 226 7.0 11.0 0.00 0.00 0.00 40 1004.3
20260505193005 76 226 13.0 17.0 0.00 0.00 0.00 41 1003.9
20260505192504 76 222 13.0 18.0 0.00 0.00 0.00 39 1003.8
20260505192001 76 252 7.0 8.0 0.00 0.00 0.00 42 1004.0
20260505191459 76 242 11.0 14.0 0.00 0.00 0.00 42 1004.0
20260505190956 76 228 10.0 15.0 0.00 0.00 0.00 45 1004.2
20260505190451 75 222 10.0 11.0 0.00 0.00 0.00 47 1004.2
20260505185947 75 239 14.0 16.0 0.00 0.00 0.00 47 1004.3
20260505185444 75 218 11.0 15.0 0.00 0.00 0.00 48 1004.3
20260505184940 75 251 14.0 18.0 0.00 0.00 0.00 47 1004.4
20260505184437 75 218 12.0 15.0 0.00 0.00 0.00 47 1004.5
20260505183933 75 271 14.0 17.0 0.00 0.00 0.00 46 1004.6
20260505183431 75 207 13.0 16.0 0.00 0.00 0.00 46 1005.2
20260505182927 75 209 17.0 18.0 0.00 0.00 0.00 47 1004.9
20260505182425 76 214 13.0 15.0 0.00 0.00 0.00 45 1005.1
20260505181920 77 278 14.0 24.0 0.00 0.00 0.00 47 1004.8
20260505181418 77 205 9.0 10.0 0.00 0.00 0.00 46 1004.9
20260505180915 76 214 12.0 17.0 0.00 0.00 0.00 46 1005.4
20260505180411 75 220 16.0 23.0 0.00 0.00 0.00 45 1005.2
20260505175908 75 202 27.0 30.0 0.00 0.00 0.00 46 1005.2
20260505175404 75 226 14.0 17.0 0.00 0.00 0.00 48 1005.8
20260505174901 75 242 15.0 20.0 0.00 0.00 0.00 47 1005.6
20260505174358 74 210 14.0 15.0 0.00 0.00 0.00 47 1005.4
20260505173854 74 320 7.0 9.0 0.00 0.00 0.00 47 1005.5
20260505173350 75 236 12.0 15.0 0.00 0.00 0.00 49 1005.2
20260505172847 74 230 12.0 16.0 0.00 0.00 0.00 47 1005.2
20260505172345 74 225 10.0 15.0 0.00 0.00 0.00 47 1005.4
20260505171844 74 229 14.0 16.0 0.00 0.00 0.00 47 1005.5
20260505171342 75 203 15.0 21.0 0.00 0.00 0.00 47 1005.2
20260505170838 75 212 16.0 21.0 0.00 0.00 0.00 47 1005.1
20260505170335 75 229 9.0 11.0 0.00 0.00 0.00 47 1004.8
20260505165831 75 211 16.0 20.0 0.00 0.00 0.00 46 1004.7
20260505165326 75 219 9.0 14.0 0.00 0.00 0.00 47 1005.0
20260505164822 75 225 15.0 18.0 0.00 0.00 0.00 47 1005.0
20260505164319 75 217 10.0 15.0 0.00 0.00 0.00 47 1005.2
20260505163818 75 192 12.0 16.0 0.00 0.00 0.00 45 1005.4
20260505163316 75 240 14.0 17.0 0.00 0.00 0.00 44 1005.6
20260505162814 76 220 15.0 18.0 0.00 0.00 0.00 45 1005.5
20260505162310 76 278 9.0 10.0 0.00 0.00 0.00 44 1005.2
20260505161807 76 240 10.0 14.0 0.00 0.00 0.00 45 1005.6
20260505161304 77 236 10.0 11.0 0.00 0.00 0.00 45 1005.7
20260505160802 77 214 12.0 15.0 0.00 0.00 0.00 45 1005.6
20260505160300 77 212 13.0 16.0 0.00 0.00 0.00 45 1005.7
20260505153239 74 180 15.0 17.0 0.00 0.00 0.00 47 1005.9
20260505152736 75 224 11.0 16.0 0.00 0.00 0.00 47 1006.0
20260505152232 74 239 13.0 20.0 0.00 0.00 0.00 46 1005.9
20260505151726 74 239 13.0 16.0 0.00 0.00 0.00 48 1005.6
20260505151224 74 236 15.0 20.0 0.00 0.00 0.00 47 1005.7
20260505150720 74 217 12.0 15.0 0.00 0.00 0.00 49 1005.7
20260505150217 74 243 13.0 15.0 0.00 0.00 0.00 47 1005.8
20260505140645 70 215 22.0 23.0 0.00 0.00 0.00 52 1006.4
20260505140142 70 264 12.0 15.0 0.00 0.00 0.00 53 1006.4
20260505130106 64 223 9.0 13.0 0.00 0.00 0.00 63 1006.9
20260505124555 62 213 7.0 8.0 0.00 0.00 0.00 68 1007.1
20260505124051 61 237 3.0 3.0 0.00 0.00 0.00 70 1007.3
20260505123548 61 227 5.0 7.0 0.00 0.00 0.00 70 1007.0
20260505123044 61 255 4.0 6.0 0.00 0.00 0.00 70 1007.1
20260505122541 61 222 5.0 6.0 0.00 0.00 0.00 70 1007.1
20260505122039 61 241 5.0 7.0 0.00 0.00 0.00 69 1007.0
20260505121535 61 257 0.0 1.0 0.00 0.00 0.00 69 1007.1
20260505121032 61 227 5.0 6.0 0.00 0.00 0.00 68 1006.8
20260505120528 61 240 1.0 2.0 0.00 0.00 0.00 67 1006.8
20260505120024 62 217 4.0 5.0 0.00 0.00 0.00 66 1006.9
20260505115518 61 191 9.0 10.0 0.00 0.00 0.00 68 1006.8
20260505115016 61 211 6.0 7.0 0.00 0.00 0.00 67 1006.9
20260505114513 62 213 9.0 14.0 0.00 0.00 0.00 64 1007.1
20260505114009 63 231 5.0 6.0 0.00 0.00 0.00 62 1007.1
20260505113506 63 209 8.0 10.0 0.00 0.00 0.00 59 1007.2
20260505113003 63 221 8.0 9.0 0.00 0.00 0.00 59 1007.1
20260505112459 63 206 8.0 10.0 0.00 0.00 0.00 60 1007.1
20260505111956 63 207 7.0 9.0 0.00 0.00 0.00 59 1007.1
20260505111450 62 220 6.0 7.0 0.00 0.00 0.00 60 1007.2
20260505110947 61 199 7.0 7.0 0.00 0.00 0.00 62 1007.1
20260505110443 61 249 0.0 0.0 0.00 0.00 0.00 64 1007.0
20260505101915 57 270 1.0 2.0 0.00 0.00 0.00 67 1006.6
20260505101414 57 256 0.0 0.0 0.00 0.00 0.00 67 1006.7
20260505100911 56 280 3.0 3.0 0.00 0.00 0.00 69 1006.4
20260505100408 55 284 2.0 2.0 0.00 0.00 0.00 70 1006.4
20260505095903 55 275 2.0 2.0 0.00 0.00 0.00 70 1006.5
20260505095401 56 279 1.0 2.0 0.00 0.00 0.00 69 1006.2
20260505094857 56 312 2.0 2.0 0.00 0.00 0.00 68 1006.1
20260505094354 57 291 1.0 1.0 0.00 0.00 0.00 67 1006.1
20260505093849 57 279 1.0 1.0 0.00 0.00 0.00 67 1006.2
20260505093347 57 253 0.0 1.0 0.00 0.00 0.00 67 1006.1
20260505092844 57 277 1.0 1.0 0.00 0.00 0.00 67 1006.0
20260505092342 57 246 1.0 1.0 0.00 0.00 0.00 67 1006.1
20260505091839 57 276 1.0 1.0 0.00 0.00 0.00 66 1006.2
20260505091337 57 260 0.0 0.0 0.00 0.00 0.00 65 1005.8
20260505090835 57 269 2.0 3.0 0.00 0.00 0.00 65 1005.9
20260505090333 57 314 1.0 1.0 0.00 0.00 0.00 65 1006.1
20260505085830 58 297 1.0 1.0 0.00 0.00 0.00 65 1005.9
20260505085328 58 273 1.0 1.0 0.00 0.00 0.00 65 1005.8
20260505084825 57 284 1.0 1.0 0.00 0.00 0.00 65 1006.0
20260505084324 57 312 1.0 2.0 0.00 0.00 0.00 65 1005.8
20260505083820 58 302 0.0 0.0 0.00 0.00 0.00 64 1005.8
20260505083318 59 303 1.0 1.0 0.00 0.00 0.00 62 1005.8
20260505082814 59 268 2.0 2.0 0.00 0.00 0.00 62 1005.9
20260505082311 59 300 0.0 1.0 0.00 0.00 0.00 62 1006.1
20260505081807 59 222 1.0 1.0 0.00 0.00 0.00 61 1006.1
20260505081304 60 215 1.0 1.0 0.00 0.00 0.00 61 1005.8
20260505080801 60 265 1.0 1.0 0.00 0.00 0.00 60 1006.1
20260505080256 60 233 3.0 5.0 0.00 0.00 0.00 59 1005.9
20260505075752 60 239 1.0 1.0 0.00 0.00 0.00 59 1005.9
20260505075249 60 247 1.0 1.0 0.00 0.00 0.00 60 1006.1
20260505074747 60 237 1.0 2.0 0.00 0.00 0.00 59 1006.0
20260505074244 60 267 1.0 1.0 0.00 0.00 0.00 59 1006.1
20260505073741 60 266 3.0 3.0 0.00 0.00 0.00 59 1005.9
20260505073239 60 307 1.0 1.0 0.00 0.00 0.00 58 1006.0
20260505072735 60 270 2.0 2.0 0.00 0.00 0.00 58 1006.2
20260505072232 60 241 3.0 3.0 0.00 0.00 0.00 59 1006.2
20260505071727 60 269 1.0 1.0 0.00 0.00 0.00 58 1006.2
20260505071225 59 279 1.0 2.0 0.00 0.00 0.00 59 1006.3
20260505070722 59 284 1.0 1.0 0.00 0.00 0.00 58 1006.3
20260505070218 60 295 1.0 1.0 0.00 0.00 0.00 57 1006.2
20260505065714 59 270 0.0 0.0 0.00 0.00 0.00 58 1006.1
20260505065211 60 281 1.0 1.0 0.00 0.00 0.00 58 1006.2
20260505064708 60 269 1.0 1.0 0.00 0.00 0.00 56 1006.1
20260505064206 61 260 1.0 1.0 0.00 0.00 0.00 55 1006.0
20260505063703 61 232 3.0 3.0 0.00 0.00 0.00 55 1006.0
20260505063159 61 233 3.0 3.0 0.00 0.00 0.00 55 1006.1
20260505062655 61 230 7.0 9.0 0.00 0.00 0.00 55 1006.2
20260505062154 61 252 5.0 6.0 0.00 0.00 0.00 54 1006.1
20260505061650 61 217 7.0 8.0 0.00 0.00 0.00 54 1006.2
20260505061148 61 230 4.0 5.0 0.00 0.00 0.00 54 1006.2
20260505060645 61 209 7.0 7.0 0.00 0.00 0.00 54 1006.2
20260505060142 61 217 4.0 5.0 0.00 0.00 0.00 55 1006.2
20260505055637 61 214 9.0 10.0 0.00 0.00 0.00 54 1006.3
20260505055134 61 224 4.0 5.0 0.00 0.00 0.00 54 1006.1
20260505054632 61 229 2.0 3.0 0.00 0.00 0.00 54 1006.1
20260505054130 61 221 3.0 3.0 0.00 0.00 0.00 54 1006.2
20260505053627 61 223 6.0 7.0 0.00 0.00 0.00 55 1006.2
20260505053123 61 245 4.0 5.0 0.00 0.00 0.00 54 1006.1
20260505052620 60 196 3.0 3.0 0.00 0.00 0.00 55 1006.3
20260505052118 61 249 1.0 1.0 0.00 0.00 0.00 54 1006.2
20260505051614 62 250 0.0 0.0 0.00 0.00 0.00 53 1006.3
20260505051112 62 201 6.0 6.0 0.00 0.00 0.00 52 1006.4
20260505050610 62 226 3.0 3.0 0.00 0.00 0.00 53 1006.5
20260505050108 62 225 5.0 6.0 0.00 0.00 0.00 53 1006.5
20260505041538 63 217 3.0 3.0 0.00 0.00 0.00 50 1006.3
20260505041035 64 231 3.0 3.0 0.00 0.00 0.00 50 1006.1
20260505040532 64 208 10.0 10.0 0.00 0.00 0.00 49 1006.1
20260505040030 64 216 4.0 6.0 0.00 0.00 0.00 49 1006.1
20260505035525 64 201 8.0 9.0 0.00 0.00 0.00 48 1006.3
20260505035022 64 196 9.0 9.0 0.00 0.00 0.00 48 1006.4
20260505034519 64 207 7.0 8.0 0.00 0.00 0.00 48 1006.0
20260505034016 65 221 6.0 7.0 0.00 0.00 0.00 48 1006.1
20260505033513 64 249 10.0 13.0 0.00 0.00 0.00 48 1006.2
20260505033011 64 211 7.0 9.0 0.00 0.00 0.00 48 1006.0
20260505032508 65 190 9.0 10.0 0.00 0.00 0.00 48 1006.1
20260505032004 65 204 11.0 14.0 0.00 0.00 0.00 47 1006.2
20260505031501 64 200 9.0 10.0 0.00 0.00 0.00 48 1005.9
20260505030958 65 216 8.0 9.0 0.00 0.00 0.00 47 1006.3
20260505030455 65 228 7.0 8.0 0.00 0.00 0.00 47 1006.1
20260505025950 65 199 9.0 13.0 0.00 0.00 0.00 46 1006.1
20260505025447 65 204 7.0 8.0 0.00 0.00 0.00 47 1006.1
20260505024946 65 187 11.0 11.0 0.00 0.00 0.00 46 1006.1
20260505024443 65 190 7.0 8.0 0.00 0.00 0.00 46 1006.3
20260505023940 66 211 5.0 6.0 0.00 0.00 0.00 45 1006.3
20260505023437 66 219 5.0 6.0 0.00 0.00 0.00 45 1006.3
20260505022934 65 204 8.0 9.0 0.00 0.00 0.00 45 1006.3
20260505022432 65 226 8.0 10.0 0.00 0.00 0.00 45 1006.3
20260505021929 66 192 6.0 8.0 0.00 0.00 0.00 44 1006.4
20260505021425 66 232 5.0 6.0 0.00 0.00 0.00 45 1006.4
20260505020921 66 215 7.0 8.0 0.00 0.00 0.00 44 1006.4
20260505020416 66 198 4.0 5.0 0.00 0.00 0.00 44 1006.4
20260505015913 66 229 3.0 5.0 0.00 0.00 0.00 45 1006.5
20260505015411 67 209 6.0 9.0 0.00 0.00 0.00 43 1006.1
20260505014908 66 198 10.0 11.0 0.00 0.00 0.00 43 1006.6
20260505014405 67 221 9.0 10.0 0.00 0.00 0.00 43 1006.3
20260505013902 67 213 11.0 13.0 0.00 0.00 0.00 43 1006.1
20260505013358 66 219 9.0 11.0 0.00 0.00 0.00 43 1006.1
20260505012857 67 215 5.0 6.0 0.00 0.00 0.00 44 1006.2
20260505012354 67 215 9.0 11.0 0.00 0.00 0.00 43 1006.0
20260505011850 67 234 9.0 10.0 0.00 0.00 0.00 43 1006.3
20260505011347 67 209 12.0 13.0 0.00 0.00 0.00 42 1006.4
20260505010843 67 238 8.0 9.0 0.00 0.00 0.00 43 1005.8
20260505010339 67 219 8.0 10.0 0.00 0.00 0.00 42 1006.0
20260505005836 67 215 5.0 6.0 0.00 0.00 0.00 43 1005.8
20260505005332 68 206 7.0 9.0 0.00 0.00 0.00 42 1005.9
20260505004830 68 224 5.0 8.0 0.00 0.00 0.00 42 1005.8
20260505004326 68 194 8.0 9.0 0.00 0.00 0.00 41 1005.7
20260505003824 68 214 7.0 8.0 0.00 0.00 0.00 41 1005.7
20260505003321 68 200 4.0 6.0 0.00 0.00 0.00 41 1005.5
20260505002817 68 207 5.0 7.0 0.00 0.00 0.00 41 1005.4
20260505002314 68 215 9.0 11.0 0.00 0.00 0.00 40 1005.7
20260505001812 69 214 7.0 10.0 0.00 0.00 0.00 40 1005.7
20260505001309 69 200 7.0 8.0 0.00 0.00 0.00 40 1005.6
20260505000806 69 187 7.0 11.0 0.00 0.00 0.00 40 1005.7
20260505000304 69 200 9.0 10.0 0.00 0.00 0.00 39 1005.6
20260504235800 69 217 6.0 7.0 0.00 0.00 0.00 39 1005.6
20260504235256 69 213 7.0 8.0 0.00 0.00 0.00 39 1005.2
20260504234754 70 219 8.0 9.0 0.00 0.00 0.00 40 1005.4
20260504234251 70 212 10.0 13.0 0.00 0.00 0.00 38 1005.2
20260504233747 70 218 5.0 7.0 0.00 0.00 0.00 39 1005.0
20260504233243 70 207 6.0 7.0 0.00 0.00 0.00 39 1004.9
20260504232740 70 212 10.0 11.0 0.00 0.00 0.00 38 1005.0